PulseSat

PulseSat

GSAT0201

Last updated on May 29, 2016, 5:39 p.m. UTC

1 40128U 14050A   16149.20816831 -.00000056  00000-0  00000-0 0  9997
2 40128  50.0716  60.6598 1592210  49.9066 323.0051  1.85518375 10226
UTC
Height (km)
Latitude
Longitude
Inclination
Orbital Period

Next 30 passes for location: Hong Kong

Rise time Rise Azimuth (degrees) Set time Set Azimuth (degrees) Duration Max altitude (degrees)

No matching passes for this satellites

PulseSat

PulseSat is the new satellites software and hardware trackering solution by Pulsely.
Satellite Two Line Element Set source: US Air Force Space Command

Download PulseSat for iOS
© 2017 Pulsely Limited